Find Starlink 33993

NORAD ID: 63949 Int'l Des: 2025-098 Owner: SPXS Country: US Constellation: starlink operational
LEOCIRCULAR

リアルタイム位置

3D地球を読み込み中...

Starlink 33993について

説明を読み込み中...

次回通過

Passes for default location (London). Set your location on the main map for personalized predictions.

高度履歴

Loading altitude history...

軌道要素

1 63949U 25098Z 26104.50002315 .00006122 00000-0 52049-3 0 9998
2 63949 70.0021 183.9982 0003664 271.6203 328.5541 14.98324988 5743
Epoch: Apr 14, 2026 • Age: 6 hours

現在のステータス

高度 590.4 km
速度 7.57 km/s
衛星直下点 -54.36°S, 85.4°W
打ち上げ日 May 13, 2025
運用期間 0.9 years
タイプ internet

技術仕様

分類 Payload
質量 575.00 kg
乾燥質量 530.00 kg
総質量 575.00 kg
長さ 0.30 m
直径 4.10 m
スパン 29.00 m
形状 Box + pan
製造者 SPXS
バスタイプ Starlink V2MO
フェーズステータス In Orbit
所有者/国 SPXS/US

Most Searched